QPF
0.00 0.00 0.00 0.00 0.00 0.00 0.00 0.00 0.00 0.00 0.00 0.00 0.00 0.00 0.00 0.00 0.00 0.00 0.00 0.00 0.00 0.00 0.00 0.00 0.00 0.00 0.00 0.00 0.00 0.00 0.00 0.00 0.00 0.00 0.00 0.00 0.00 0.00 0.00 0.00 0.00 0.00 0.00
0.00 0.00 0.00 0.00 0.00 0.00 0.00 0.00 0.00 0.00 0.00 0.00 0.00 0.00 0.00 0.00 0.00 0.00 0.00 0.00 0.00 0.00 0.00 0.00 0.00 0.00 0.00 0.00 0.00 0.00 0.00 0.00 0.00 0.00 0.00 0.00 0.00 0.00 0.00 0.00 0.00 0.00 0.00
0.00 0.00 0.00 0.00 0.00 0.00 0.00 0.00 0.00 0.00 0.00 0.00 0.00 0.00 0.00 0.00 0.00 0.00 0.00 0.00 0.00 0.00 0.00 0.00 0.00 0.00 0.00 0.00 0.00 0.00 0.00 0.00 0.00 0.00 0.00 0.00 0.00 0.00 0.00 0.00 0.00 0.00 0.00
0.00 0.00 0.00 0.00 0.00 0.00 0.00 0.00 0.00 0.00 0.00 0.00 0.00 0.00 0.00 0.00 0.00 0.00 0.00 0.00 0.00 0.00 0.00 0.00 0.00 0.00 0.00 0.00 0.00 0.00 0.00 0.00 0.00 0.00 0.00 0.00 0.00 0.00 0.00 0.00 0.00 0.00 0.00
0.00 0.00 0.00 0.00 0.00 0.00 0.00 0.00 0.00 0.00 0.00 0.00 0.00 0.00 0.00 0.00 0.00 0.00 0.00 0.00 0.00 0.00 0.00 0.00 0.00 0.00 0.00 0.00 0.00 0.00 0.00 0.00 0.00 0.00 0.00 0.00 0.00 0.00 0.00 0.00 0.00 0.00 0.00
0.00 0.00 0.00 0.00 0.00 0.00 0.00 0.00 0.00 0.00 0.00 0.00 0.00 0.00 0.00 0.00 0.00 0.00 0.00 0.00 0.00 0.00 0.00 0.00 0.00 0.00 0.00 0.00 0.00 0.00 0.00 0.00 0.00 0.00 0.00 0.00 0.00 0.00 0.00 0.00 0.00 0.00 0.00
0.00 0.00 0.00 0.00 0.00 0.00 0.00 0.00 0.00 0.00 0.00 0.00 0.00 0.00 0.00 0.00 0.00 0.00 0.00 0.00 0.00 0.00 0.00 0.00 0.00 0.00 0.00 0.00 0.00 0.00 0.00 0.00 0.00 0.00 0.00 0.00 0.00 0.00 0.00 0.00 0.00 0.00 0.00
0.03 0.05 0.00 0.00 0.00 0.00 0.00 0.00 0.00 0.00 0.00 0.00 0.00 0.00 0.00 0.00 0.00 0.00 0.00 0.00 0.00 0.00 0.00 0.00 0.00 0.00 0.00 0.00 0.00 0.00 0.00 0.00 0.00 0.00 0.00 0.00 0.00 0.00 0.00 0.00 0.00 0.00 0.00
0.08 0.08 0.03 0.03 0.01 0.00 0.00 0.00 0.00 0.00 0.00 0.00 0.00 0.00 0.00 0.00 0.00 0.00 0.00 0.00 0.00 0.00 0.00 0.00 0.00 0.00 0.00 0.00 0.00 0.00 0.00 0.00 0.00 0.00 0.00 0.00 0.00 0.00 0.00 0.00 0.00 0.00 0.00
0.10 0.09 0.07 0.07 0.05 0.02 0.00 0.00 0.00 0.00 0.00 0.00 0.00 0.00 0.00 0.00 0.00 0.00 0.00 0.00 0.00 0.00 0.00 0.00 0.00 0.00 0.00 0.00 0.00 0.00 0.00 0.00 0.00 0.00 0.00 0.00 0.00 0.00 0.00 0.00 0.00 0.00 0.00
0.14 0.11 0.07 0.03 0.03 0.03 0.02 0.02 0.01 0.01 0.00 0.00 0.00 0.00 0.00 0.00 0.00 0.00 0.00 0.00 0.00 0.00 0.00 0.00 0.00 0.00 0.00 0.00 0.00 0.00 0.00 0.00 0.00 0.00 0.00 0.00 0.00 0.00 0.00 0.00 0.00 0.00 0.00
0.08 0.07 0.05 0.03 0.03 0.03 0.03 0.02 0.01 0.00 0.00 0.00 0.00 0.00 0.00 0.00 0.00 0.00 0.00 0.00 0.00 0.00 0.00 0.00 0.00 0.00 0.00 0.00 0.00 0.00 0.00 0.00 0.00 0.00 0.00 0.00 0.00 0.00 0.00 0.00 0.00 0.00 0.00
0.05 0.06 0.04 0.03 0.02 0.01 0.00 0.01 0.01 0.00 0.00 0.00 0.00 0.00 0.00 0.00 0.00 0.00 0.00 0.00 0.00 0.00 0.00 0.00 0.00 0.00 0.00 0.00 0.00 0.00 0.00 0.00 0.00 0.00 0.00 0.00 0.00 0.00 0.00 0.00 0.00 0.00 0.00
0.03 0.03 0.02 0.01 0.01 0.00 0.01 0.01 0.01 0.00 0.00 0.00 0.00 0.00 0.00 0.00 0.00 0.00 0.00 0.00 0.00 0.00 0.00 0.00 0.00 0.00 0.00 0.00 0.00 0.00 0.00 0.00 0.00 0.00 0.00 0.00 0.00 0.00 0.00 0.00 0.00 0.00 0.00
0.03 0.03 0.02 0.01 0.00 0.00 0.01 0.01 0.00 0.00 0.00 0.00 0.00 0.00 0.00 0.00 0.00 0.00 0.00 0.00 0.00 0.00 0.00 0.00 0.00 0.00 0.00 0.00 0.00 0.00 0.00 0.00 0.00 0.00 0.00 0.00 0.00 0.00 0.00 0.00 0.00 0.01 0.00
0.03 0.02 0.01 0.00 0.00 0.00 0.00 0.00 0.00 0.00 0.00 0.00 0.00 0.00 0.00 0.00 0.00 0.00 0.00 0.00 0.00 0.00 0.00 0.00 0.00 0.00 0.00 0.00 0.00 0.00 0.00 0.00 0.00 0.00 0.00 0.00 0.00 0.00 0.00 0.00 0.00 0.00 0.01
0.01 0.00 0.00 0.00 0.00 0.01 0.00 0.00 0.00 0.00 0.00 0.00 0.00 0.00 0.00 0.00 0.00 0.00 0.00 0.00 0.00 0.00 0.00 0.00 0.00 0.00 0.00 0.00 0.00 0.00 0.00 0.00 0.00 0.00 0.00 0.00 0.00 0.00 0.00 0.00 0.00 0.00 0.00
0.00 0.00 0.00 0.00 0.00 0.00 0.00 0.00 0.00 0.00 0.00 0.00 0.00 0.00 0.00 0.00 0.00 0.00 0.00 0.00 0.00 0.00 0.00 0.00 0.00 0.00 0.00 0.00 0.00 0.00 0.00 0.00 0.00 0.00 0.00 0.00 0.00 0.00 0.00 0.00 0.00 0.00 0.00
0.00 0.01 0.01 0.00 0.00 0.00 0.00 0.00 0.00 0.00 0.00 0.00 0.00 0.00 0.00 0.00 0.00 0.00 0.00 0.00 0.00 0.00 0.00 0.00 0.00 0.00 0.00 0.00 0.00 0.00 0.00 0.00 0.00 0.00 0.00 0.00 0.00 0.00 0.00 0.00 0.00 0.00 0.00
0.00 0.00 0.01 0.01 0.00 0.00 0.02 0.02 0.02 0.02 0.02 0.01 0.00 0.00 0.00 0.00 0.00 0.00 0.00 0.00 0.00 0.00 0.00 0.00 0.00 0.00 0.00 0.00 0.00 0.00 0.00 0.00 0.00 0.00 0.00 0.00 0.00 0.00 0.00 0.00 0.00 0.00 0.00
0.01 0.02 0.01 0.00 0.00 0.03 0.04 0.05 0.04 0.03 0.01 0.00 0.00 0.00 0.00 0.00 0.00 0.00 0.00 0.00 0.00 0.00 0.00 0.00 0.00 0.00 0.00 0.00 0.00 0.00 0.00 0.00 0.00 0.00 0.00 0.00 0.00 0.00 0.00 0.00 0.00 0.00 0.00
0.03 0.04 0.08 0.08 0.02 0.01 0.01 0.01 0.00 0.00 0.00 0.00 0.00 0.00 0.00 0.00 0.00 0.00 0.00 0.00 0.00 0.00 0.00 0.00 0.00 0.00 0.00 0.00 0.00 0.00 0.00 0.00 0.00 0.00 0.00 0.00 0.00 0.00 0.00 0.00 0.00 0.00 0.00
0.04 0.06 0.04 0.02 0.02 0.01 0.00 0.00 0.00 0.00 0.00 0.00 0.00 0.00 0.00 0.00 0.00 0.00 0.00 0.00 0.00 0.00 0.00 0.00 0.00 0.00 0.00 0.00 0.00 0.01 0.01 0.01 0.01 0.00 0.00 0.00 0.00 0.00 0.00 0.00 0.00 0.00 0.00
0.04 0.03 0.04 0.03 0.02 0.01 0.00 0.00 0.00 0.00 0.00 0.00 0.00 0.00 0.00 0.00 0.00 0.00 0.00 0.00 0.00 0.00 0.00 0.00 0.00 0.00 0.00 0.00 0.01 0.03 0.01 0.00 0.00 0.00 0.00 0.00 0.00 0.00 0.00 0.00 0.00 0.00 0.00
0.03 0.02 0.01 0.01 0.00 0.00 0.00 0.00 0.00 0.00 0.00 0.00 0.00 0.00 0.00 0.00 0.00 0.00 0.00 0.00 0.00 0.00 0.00 0.00 0.00 0.00 0.00 0.00 0.00 0.00 0.00 0.00 0.00 0.00 0.00 0.00 0.00 0.00 0.00 0.00 0.00 0.00 0.00
0.08 0.03 0.01 0.01 0.00 0.00 0.00 0.00 0.00 0.00 0.00 0.00 0.00 0.00 0.00 0.00 0.00 0.00 0.00 0.00 0.00 0.00 0.00 0.00 0.00 0.00 0.00 0.00 0.00 0.00 0.00 0.01 0.01 0.01 0.00 0.01 0.00 0.00 0.01 0.00 0.00 0.00 0.00
MSLP
1016.11 1016.40 1016.72 1016.94 1017.08 1017.42 1017.67 1017.93 1018.22 1018.44 1018.60 1018.67 1018.74 1018.83 1018.96 1019.36 1019.60 1019.61 1019.55 1019.31 1019.29 1019.46 1019.81 1020.03 1020.13 1020.16 1020.29 1020.26 1020.22 1020.04 1020.01 1019.91 1019.79 1019.69 1019.54 1019.44 1019.32 1019.19 1019.08 1018.97 1018.69 1018.53 1018.34
1015.75 1016.19 1016.56 1016.77 1016.98 1017.17 1017.46 1017.82 1018.21 1018.47 1018.71 1018.90 1019.12 1019.16 1019.31 1019.47 1019.82 1019.97 1020.03 1019.85 1019.83 1019.94 1020.16 1020.29 1020.42 1020.43 1020.38 1020.42 1020.41 1020.24 1020.20 1020.08 1020.02 1019.89 1019.74 1019.59 1019.46 1019.34 1019.22 1019.04 1018.83 1018.66 1018.43
1015.31 1015.69 1016.18 1016.59 1016.66 1016.92 1017.30 1017.88 1018.40 1018.73 1018.93 1019.09 1019.37 1019.61 1019.68 1019.71 1019.94 1020.16 1020.31 1020.36 1020.48 1020.39 1020.46 1020.55 1020.66 1020.61 1020.54 1020.50 1020.54 1020.39 1020.30 1020.30 1020.23 1020.09 1019.87 1019.74 1019.64 1019.50 1019.41 1019.18 1018.93 1018.72 1018.49
1014.82 1015.41 1015.90 1016.36 1016.62 1016.89 1017.32 1018.03 1018.60 1019.08 1019.33 1019.53 1019.69 1019.74 1019.90 1019.89 1020.07 1020.28 1020.49 1020.68 1020.87 1020.89 1020.86 1020.82 1020.89 1020.78 1020.74 1020.71 1020.57 1020.49 1020.34 1020.41 1020.34 1020.21 1020.01 1019.90 1019.73 1019.60 1019.41 1019.19 1018.96 1018.68 1018.40
1014.51 1015.01 1015.53 1016.09 1016.57 1016.90 1017.51 1017.92 1018.60 1018.98 1019.68 1019.95 1020.03 1020.07 1020.14 1020.16 1020.20 1020.33 1020.69 1020.79 1020.96 1021.06 1021.22 1020.96 1021.07 1020.97 1020.96 1020.95 1020.73 1020.65 1020.46 1020.29 1020.31 1020.23 1020.09 1019.94 1019.78 1019.60 1019.38 1019.17 1018.89 1018.61 1018.32
1014.14 1014.76 1015.43 1016.02 1016.47 1017.06 1017.58 1018.04 1018.60 1019.27 1019.69 1020.01 1020.07 1020.29 1020.38 1020.37 1020.39 1020.69 1020.74 1020.76 1020.99 1021.13 1021.25 1021.28 1021.32 1021.21 1021.08 1021.02 1020.88 1020.72 1020.52 1020.28 1020.17 1020.15 1020.02 1019.89 1019.71 1019.47 1019.23 1019.02 1018.73 1018.45 1018.14
1013.61 1014.49 1015.27 1015.87 1016.35 1016.81 1017.33 1017.97 1018.82 1019.45 1019.98 1020.05 1020.42 1020.59 1020.54 1020.54 1020.51 1020.58 1020.77 1020.88 1020.99 1021.14 1021.26 1021.36 1021.46 1021.43 1021.36 1021.06 1020.91 1020.74 1020.49 1020.29 1020.19 1019.98 1019.79 1019.71 1019.53 1019.24 1018.98 1018.68 1018.41 1018.08 1017.71
1013.01 1013.93 1014.53 1015.46 1016.06 1016.75 1017.46 1017.95 1018.41 1019.50 1019.98 1020.05 1020.34 1020.88 1020.87 1020.80 1020.69 1020.71 1020.73 1020.93 1021.07 1021.16 1021.35 1021.47 1021.57 1021.49 1021.44 1021.36 1021.12 1020.67 1020.57 1020.24 1020.03 1019.79 1019.55 1019.32 1019.14 1018.88 1018.59 1018.29 1017.92 1017.54 1017.19
1012.62 1013.39 1014.14 1014.74 1015.58 1016.28 1017.14 1017.70 1018.20 1018.85 1019.74 1020.23 1020.10 1020.47 1021.06 1021.16 1021.22 1020.94 1020.95 1021.08 1021.25 1021.50 1021.66 1021.64 1021.53 1021.51 1021.44 1021.37 1021.14 1020.91 1020.56 1020.19 1019.87 1019.59 1019.28 1018.98 1018.72 1018.49 1018.16 1017.81 1017.45 1017.06 1016.69
1012.59 1013.16 1013.86 1014.64 1015.49 1015.91 1016.73 1017.62 1018.21 1018.67 1019.24 1019.96 1020.35 1020.40 1020.62 1020.82 1021.25 1021.49 1021.37 1021.45 1021.47 1021.58 1021.63 1021.65 1021.70 1021.60 1021.55 1021.40 1021.06 1020.82 1020.47 1020.09 1019.65 1019.30 1018.96 1018.66 1018.40 1018.08 1017.73 1017.32 1016.95 1016.47 1016.08
1013.25 1013.27 1013.88 1014.59 1015.19 1015.82 1016.63 1017.35 1018.11 1018.58 1019.14 1019.78 1020.06 1020.57 1020.95 1021.00 1021.35 1021.74 1021.96 1021.85 1021.70 1021.56 1021.47 1021.51 1021.47 1021.63 1021.58 1021.39 1021.13 1020.86 1020.45 1020.12 1019.71 1019.28 1018.84 1018.46 1018.15 1017.73 1017.26 1016.83 1016.30 1015.95 1015.66
1013.42 1013.85 1014.22 1014.81 1015.33 1015.76 1016.63 1017.39 1018.00 1018.46 1018.96 1019.54 1020.00 1020.28 1020.72 1021.19 1021.67 1022.00 1022.39 1022.49 1022.42 1021.89 1021.50 1021.35 1021.43 1021.61 1021.59 1021.44 1021.19 1020.97 1020.68 1020.23 1019.77 1019.31 1018.87 1018.37 1017.86 1017.33 1016.79 1016.28 1015.88 1015.53 1015.18
1013.63 1014.00 1014.46 1015.00 1015.50 1015.74 1016.69 1017.48 1018.08 1018.62 1019.12 1019.69 1020.06 1020.54 1020.54 1021.08 1021.42 1021.92 1022.40 1022.74 1022.85 1022.38 1021.95 1021.55 1021.47 1021.40 1021.18 1021.21 1021.13 1020.73 1020.45 1020.06 1019.58 1019.13 1018.61 1017.94 1017.35 1016.88 1016.48 1016.14 1015.51 1015.19 1014.81
1012.79 1013.66 1014.40 1015.21 1015.73 1015.96 1016.70 1017.66 1018.12 1018.92 1019.45 1019.85 1020.25 1020.73 1020.88 1021.25 1021.41 1021.76 1022.22 1022.79 1023.06 1023.00 1022.48 1021.89 1021.53 1021.23 1021.21 1021.09 1020.93 1020.53 1020.39 1019.88 1019.41 1018.83 1018.18 1017.58 1017.14 1016.69 1016.15 1015.57 1015.10 1014.75 1014.31
1012.93 1013.71 1014.66 1015.43 1016.08 1016.26 1016.92 1017.47 1018.45 1018.85 1019.68 1019.79 1020.31 1020.48 1020.83 1021.34 1021.57 1021.66 1021.95 1022.35 1022.83 1023.27 1022.74 1021.93 1021.76 1021.18 1021.11 1020.98 1020.75 1020.32 1020.06 1019.67 1018.94 1018.27 1017.67 1017.16 1016.60 1016.09 1015.61 1015.10 1014.66 1014.25 1014.20
1012.83 1013.72 1014.64 1015.35 1016.32 1016.65 1017.28 1017.74 1018.68 1019.13 1019.63 1020.08 1020.44 1020.50 1020.90 1021.25 1021.57 1021.58 1021.84 1022.13 1022.51 1022.94 1022.92 1021.97 1021.65 1021.25 1021.02 1020.64 1020.35 1019.98 1019.70 1019.11 1018.62 1017.93 1017.22 1016.60 1016.06 1015.52 1015.00 1014.52 1014.28 1013.74 1013.29
1012.74 1013.72 1014.52 1015.41 1016.44 1017.00 1017.67 1018.12 1019.06 1019.55 1020.24 1020.40 1020.47 1020.53 1020.70 1021.22 1021.37 1021.45 1021.62 1021.93 1022.28 1022.54 1022.50 1021.76 1021.48 1021.16 1020.92 1020.46 1020.01 1019.61 1019.17 1018.66 1018.07 1017.32 1016.69 1016.06 1015.52 1014.90 1014.41 1014.04 1013.43 1013.03 1012.60
1012.90 1013.75 1014.64 1015.61 1016.51 1017.33 1017.86 1018.52 1019.18 1019.89 1020.47 1020.71 1020.83 1021.04 1021.00 1021.03 1021.16 1021.25 1021.46 1021.74 1021.91 1021.88 1022.07 1021.64 1021.27 1020.96 1020.63 1020.10 1019.67 1019.26 1018.67 1018.02 1017.43 1016.79 1016.12 1015.41 1014.86 1014.44 1013.94 1013.39 1012.80 1012.22 1011.85
1013.21 1014.07 1014.88 1015.78 1016.88 1017.48 1018.18 1018.82 1019.17 1019.95 1020.57 1020.70 1020.98 1021.30 1021.21 1021.07 1021.11 1021.15 1021.27 1021.39 1021.38 1021.27 1021.36 1021.27 1020.74 1020.34 1019.88 1019.46 1019.03 1018.49 1018.03 1017.33 1016.82 1016.14 1015.51 1015.01 1014.33 1013.81 1013.26 1012.60 1011.96 1011.50 1011.06
1013.59 1014.56 1015.58 1016.50 1017.40 1017.85 1018.53 1018.90 1019.42 1020.21 1020.55 1020.93 1021.00 1021.72 1021.30 1021.07 1020.94 1020.92 1020.81 1020.79 1020.81 1020.89 1020.73 1020.64 1020.25 1019.86 1019.53 1018.87 1018.49 1017.95 1017.23 1016.85 1016.10 1015.44 1014.85 1014.42 1013.66 1013.14 1012.56 1012.01 1011.48 1010.88 1010.40
1014.52 1015.49 1016.59 1017.90 1018.68 1018.77 1018.91 1019.02 1019.43 1020.19 1020.76 1021.09 1021.45 1021.53 1021.34 1020.96 1020.62 1020.30 1020.14 1020.24 1020.27 1020.18 1020.08 1020.00 1019.83 1019.45 1019.04 1018.38 1017.98 1017.41 1016.80 1016.01 1015.44 1014.86 1013.92 1013.76 1013.11 1012.71 1011.97 1011.35 1010.76 1010.21 1009.68
1015.76 1016.74 1017.80 1018.69 1018.64 1019.66 1019.11 1019.07 1019.63 1020.20 1020.83 1021.38 1021.43 1021.41 1021.20 1020.72 1020.41 1020.18 1019.92 1019.69 1019.55 1019.32 1019.29 1019.36 1019.17 1018.88 1018.25 1017.87 1017.41 1016.99 1016.29 1015.66 1014.32 1013.70 1013.47 1012.95 1012.48 1011.66 1010.94 1010.32 1009.74 1009.00 1008.29
1017.26 1018.05 1018.14 1018.99 1019.70 1019.41 1019.11 1019.64 1020.20 1020.60 1021.14 1021.27 1021.34 1021.36 1021.00 1020.67 1020.36 1020.01 1019.67 1019.33 1019.12 1018.92 1018.61 1018.39 1018.34 1018.19 1017.59 1017.14 1016.72 1016.18 1015.72 1015.14 1014.35 1013.38 1013.10 1012.10 1011.61 1010.62 1009.79 1009.17 1008.63 1007.92 1007.24
1018.26 1019.09 1019.38 1019.36 1019.09 1019.22 1019.82 1020.31 1020.41 1020.81 1021.01 1021.17 1021.18 1021.03 1020.78 1020.35 1019.95 1019.51 1019.19 1018.96 1018.77 1018.55 1018.34 1017.97 1017.52 1017.12 1016.69 1016.15 1015.78 1015.28 1014.83 1014.36 1013.74 1013.10 1012.66 1011.47 1010.67 1009.65 1008.89 1008.34 1007.63 1006.85 1006.21
1019.10 1019.21 1019.31 1019.42 1019.60 1019.70 1019.74 1020.46 1020.45 1020.61 1020.83 1020.83 1020.70 1020.58 1020.31 1019.99 1019.67 1019.14 1018.68 1018.65 1018.38 1018.06 1017.62 1016.98 1016.50 1016.13 1015.79 1015.36 1014.94 1014.69 1014.49 1014.20 1013.00 1012.36 1011.78 1011.24 1009.89 1008.88 1008.22 1007.16 1006.47 1005.86 1005.31
1019.56 1019.49 1020.30 1019.97 1019.57 1019.93 1020.23 1020.35 1020.23 1020.34 1020.61 1020.46 1020.38 1020.28 1020.06 1019.66 1019.15 1018.62 1018.19 1018.15 1017.98 1017.66 1017.12 1016.84 1016.53 1016.07 1015.63 1015.29 1014.62 1014.54 1014.31 1013.98 1013.17 1011.57 1010.68 1010.63 1009.67 1009.36 1006.99 1005.90 1005.46 1005.22 1004.67
Thickness
5683 5680 5677 5674 5672 5668 5666 5664 5661 5658 5656 5655 5653 5652 5651 5647 5644 5642 5641 5639 5637 5635 5631 5628 5626 5624 5622 5622 5622 5623 5622 5622 5621 5621 5622 5621 5621 5621 5620 5621 5623 5624 5625
5680 5677 5673 5671 5668 5666 5663 5660 5656 5652 5649 5646 5644 5643 5641 5639 5635 5632 5630 5629 5626 5624 5622 5619 5617 5616 5615 5614 5613 5614 5614 5613 5613 5612 5613 5612 5612 5612 5611 5612 5614 5615 5616
5678 5675 5670 5668 5666 5663 5659 5654 5649 5645 5643 5640 5637 5634 5632 5631 5627 5623 5621 5619 5615 5614 5612 5611 5608 5608 5608 5607 5604 5605 5605 5604 5603 5603 5603 5602 5602 5602 5601 5602 5603 5604 5605
5675 5671 5667 5664 5661 5657 5654 5648 5642 5637 5632 5629 5627 5626 5624 5622 5620 5617 5613 5610 5607 5604 5602 5601 5599 5599 5599 5598 5597 5596 5596 5594 5593 5593 5592 5592 5592 5591 5592 5592 5593 5594 5595
5670 5667 5663 5659 5655 5652 5647 5643 5635 5631 5623 5620 5617 5615 5614 5613 5611 5608 5605 5602 5599 5596 5593 5591 5590 5590 5588 5586 5586 5586 5586 5585 5584 5582 5581 5581 5581 5581 5581 5581 5582 5583 5584
5668 5661 5656 5653 5649 5644 5639 5635 5629 5622 5616 5612 5611 5607 5604 5603 5601 5598 5596 5593 5590 5587 5584 5583 5581 5579 5577 5576 5575 5575 5574 5574 5573 5572 5571 5570 5570 5570 5570 5570 5570 5571 5572
5665 5656 5650 5647 5643 5639 5634 5628 5619 5613 5607 5604 5601 5597 5596 5593 5592 5590 5585 5583 5581 5578 5576 5574 5571 5568 5566 5565 5565 5564 5563 5562 5561 5561 5560 5558 5558 5558 5558 5558 5558 5560 5561
5664 5653 5648 5643 5638 5631 5625 5620 5616 5606 5600 5597 5593 5588 5589 5586 5583 5580 5578 5575 5572 5569 5565 5561 5558 5557 5555 5553 5553 5552 5550 5550 5550 5549 5549 5548 5546 5546 5546 5546 5547 5548 5549
5658 5650 5644 5640 5633 5627 5621 5615 5610 5604 5595 5589 5588 5584 5575 5577 5568 5570 5568 5565 5561 5556 5553 5550 5547 5545 5543 5541 5540 5539 5538 5538 5537 5536 5536 5535 5534 5533 5533 5533 5534 5535 5536
5652 5645 5639 5633 5626 5623 5616 5608 5602 5597 5591 5584 5578 5576 5571 5568 5564 5564 5557 5554 5550 5547 5543 5539 5535 5533 5531 5529 5529 5527 5525 5524 5524 5523 5522 5521 5520 5519 5519 5520 5520 5521 5522
5636 5636 5630 5625 5621 5616 5608 5602 5595 5590 5584 5577 5572 5566 5562 5557 5551 5547 5546 5541 5539 5536 5533 5528 5525 5521 5518 5517 5515 5513 5511 5510 5509 5508 5506 5505 5503 5503 5504 5504 5506 5505 5505
5624 5622 5619 5614 5611 5608 5600 5593 5588 5583 5577 5570 5564 5560 5554 5549 5542 5535 5530 5525 5522 5522 5520 5516 5512 5508 5504 5503 5499 5496 5494 5494 5493 5492 5491 5490 5489 5489 5489 5489 5489 5487 5486
5611 5610 5607 5603 5600 5599 5591 5584 5579 5572 5566 5560 5555 5549 5546 5539 5534 5527 5520 5514 5510 5510 5508 5505 5500 5496 5492 5489 5485 5481 5479 5477 5476 5476 5474 5474 5474 5473 5472 5470 5471 5469 5468
5607 5602 5597 5592 5589 5588 5582 5573 5569 5560 5555 5549 5545 5538 5534 5528 5524 5518 5511 5503 5496 5492 5493 5492 5489 5485 5480 5476 5469 5466 5463 5460 5458 5457 5457 5456 5455 5454 5453 5453 5452 5450 5449
5594 5590 5584 5580 5575 5575 5569 5565 5557 5552 5544 5541 5535 5531 5525 5517 5512 5508 5501 5493 5485 5478 5479 5480 5473 5471 5465 5460 5455 5452 5449 5445 5444 5442 5441 5438 5437 5435 5433 5432 5429 5427 5421
5584 5579 5574 5569 5563 5562 5557 5553 5544 5540 5535 5529 5524 5520 5513 5507 5501 5496 5488 5481 5473 5465 5460 5462 5458 5455 5451 5446 5441 5436 5433 5430 5427 5425 5423 5422 5420 5417 5413 5409 5403 5398 5392
5574 5568 5564 5559 5552 5549 5543 5540 5532 5529 5520 5517 5513 5509 5504 5496 5489 5483 5477 5469 5461 5452 5448 5449 5442 5437 5433 5429 5426 5421 5417 5414 5411 5407 5404 5401 5397 5393 5387 5380 5375 5366 5359
5561 5558 5554 5549 5543 5538 5533 5528 5522 5515 5508 5503 5498 5493 5490 5486 5478 5472 5465 5456 5449 5442 5435 5434 5428 5421 5416 5413 5409 5404 5400 5395 5390 5384 5380 5375 5369 5362 5354 5348 5343 5340 5336
5550 5547 5544 5540 5532 5528 5522 5516 5512 5504 5497 5493 5487 5478 5476 5471 5465 5459 5452 5445 5438 5432 5423 5417 5416 5409 5405 5399 5395 5390 5385 5379 5369 5359 5352 5346 5339 5332 5326 5325 5327 5328 5327
5539 5536 5530 5525 5519 5517 5511 5507 5501 5492 5485 5479 5474 5463 5460 5458 5453 5447 5441 5434 5427 5419 5411 5404 5402 5396 5389 5385 5378 5373 5372 5357 5349 5334 5328 5323 5317 5315 5312 5313 5314 5315 5316
5526 5522 5515 5505 5500 5498 5499 5497 5492 5483 5475 5466 5459 5453 5448 5445 5443 5438 5432 5422 5414 5407 5398 5390 5386 5378 5372 5369 5359 5353 5346 5339 5327 5311 5314 5312 5305 5303 5298 5298 5300 5302 5304
5510 5504 5495 5491 5489 5484 5490 5489 5481 5474 5464 5453 5447 5439 5435 5434 5429 5423 5418 5412 5405 5396 5382 5373 5367 5363 5357 5347 5338 5328 5322 5313 5320 5303 5301 5303 5292 5295 5289 5287 5287 5289 5292
5490 5486 5484 5480 5475 5479 5481 5474 5467 5458 5449 5443 5435 5428 5424 5419 5414 5409 5404 5398 5390 5382 5373 5364 5355 5341 5337 5326 5318 5307 5301 5300 5300 5295 5290 5299 5286 5287 5282 5280 5277 5277 5279
5477 5472 5473 5473 5475 5474 5465 5459 5454 5445 5437 5430 5424 5418 5412 5408 5403 5399 5392 5385 5376 5365 5354 5344 5334 5325 5313 5305 5298 5297 5295 5294 5290 5284 5274 5286 5280 5281 5279 5272 5268 5269 5269
5467 5468 5468 5467 5463 5460 5457 5446 5441 5435 5427 5420 5414 5408 5403 5398 5392 5388 5382 5371 5361 5349 5337 5326 5317 5306 5297 5293 5290 5288 5282 5279 5282 5279 5264 5269 5272 5274 5274 5273 5268 5264 5265
5459 5459 5451 5454 5455 5447 5443 5437 5433 5424 5416 5411 5404 5396 5391 5386 5381 5375 5367 5356 5345 5333 5322 5307 5293 5287 5285 5282 5278 5272 5268 5264 5261 5271 5259 5259 5260 5252 5274 5276 5270 5262 5262